FW1042 Weather Reports


Display with metric or nautical units.
time (UTC)temp
F
wind
direction
speed
MPH
gust
MPH
rain 1hr
in
rain 24hr
in
rain mn
in
humidity
%
barometer
mb
20260903113035 78 225 1.0 4.0 0.00 0.00 0.00 87 1012.9
20260903112538 78 173 1.0 4.0 0.00 0.00 0.00 87 1013.0
20260903112033 78 172 0.0 3.0 0.00 0.00 0.00 88 1013.0
20260903111532 78 122 0.0 3.0 0.00 0.00 0.00 88 1013.1
20260903111030 78 173 0.0 2.0 0.00 0.00 0.00 88 1013.0
20260903110748 78 144 0.0 2.0 0.00 0.00 0.00 88 1012.7
20260903110704 78 109 0.0 2.0 0.00 0.00 0.00 88 1012.9
20260903110436 78 153 0.0 3.0 0.00 0.00 0.00 88 1012.7
20260903110338 78 144 0.0 0.0 0.00 0.00 0.00 88 1012.9
20260903110218 78 144 0.0 1.0 0.00 0.00 0.00 88 1012.6
20260903110116 78 144 0.0 2.0 0.00 0.00 0.00 88 1012.8
20260903104017 78 153 0.0 3.0 0.00 0.00 0.00 88 1012.7
20260903103517 78 193 1.0 4.0 0.00 0.00 0.00 88 1012.6
20260903103021 78 167 1.0 4.0 0.00 0.00 0.00 88 1012.5
20260903102517 78 153 1.0 3.0 0.00 0.00 0.00 88 1012.6
20260903102017 78 182 1.0 6.0 0.00 0.00 0.00 88 1012.7
20260903101517 78 194 1.0 6.0 0.00 0.00 0.00 88 1012.8
20260903101017 78 182 1.0 4.0 0.00 0.00 0.00 88 1012.7
20260903100516 78 140 1.0 3.0 0.00 0.00 0.00 88 1012.7
20260903100013 78 153 0.0 2.0 0.00 0.00 0.00 88 1012.7
20260903095805 78 174 0.0 4.0 0.00 0.00 0.00 88 1012.7
20260903095013 78 202 1.0 4.0 0.00 0.00 0.00 88 1012.7
20260903094510 78 126 0.0 3.0 0.00 0.00 0.00 87 1012.8
20260903094009 78 21 1.0 3.0 0.00 0.00 0.00 87 1012.9
20260903093808 78 119 1.0 3.0 0.00 0.00 0.00 87 1012.9
20260903093009 78 125 1.0 3.0 0.00 0.00 0.00 87 1012.8
20260903092803 78 122 1.0 3.0 0.00 0.00 0.00 86 1012.9
20260903092003 78 84 1.0 4.0 0.00 0.00 0.00 86 1012.8
20260903091501 78 315 1.0 4.0 0.00 0.00 0.00 86 1012.8
20260903091256 78 101 1.0 3.0 0.00 0.00 0.00 85 1012.6
20260903090503 79 5 1.0 6.0 0.00 0.00 0.00 85 1012.7
20260903090306 79 42 1.0 6.0 0.00 0.00 0.00 84 1012.7
20260903085503 79 211 1.0 3.0 0.00 0.00 0.00 84 1012.7
20260903085002 79 39 1.0 6.0 0.00 0.00 0.00 83 1012.6
20260903084501 79 15 2.0 6.0 0.00 0.00 0.00 83 1012.7
20260903084000 80 86 2.0 6.0 0.00 0.00 0.00 82 1012.8
20260903083459 80 214 2.0 4.0 0.00 0.00 0.00 82 1012.7
20260903082959 80 115 2.0 7.0 0.00 0.00 0.00 81 1012.7
20260903082500 80 160 2.0 7.0 0.00 0.00 0.00 81 1012.6
20260903081959 80 288 2.0 7.0 0.00 0.00 0.00 81 1012.6
20260903081754 80 18 1.0 7.0 0.00 0.00 0.00 80 1012.7
20260903080959 80 217 1.0 4.0 0.00 0.00 0.00 80 1012.7
20260903080759 80 43 1.0 4.0 0.00 0.00 0.00 80 1012.5
20260903080302 80 82 1.0 4.0 0.00 0.00 0.00 80 1012.5
20260903075457 80 92 1.0 7.0 0.00 0.00 0.00 80 1012.5
20260903074959 80 176 1.0 7.0 0.00 0.00 0.00 80 1012.5
20260903074457 80 102 1.0 3.0 0.00 0.00 0.00 80 1012.6
20260903073957 80 128 1.0 6.0 0.00 0.00 0.00 80 1012.5
20260903073457 80 175 1.0 6.0 0.00 0.00 0.00 80 1012.5
20260903072956 80 167 1.0 3.0 0.00 0.00 0.00 80 1012.7
20260903072457 80 226 1.0 3.0 0.00 0.00 0.00 80 1012.7
20260903071956 80 154 1.0 5.0 0.00 0.00 0.00 80 1012.8
20260903071454 80 117 1.0 5.0 0.00 0.00 0.00 80 1012.8
20260903070951 80 139 1.0 6.0 0.00 0.00 0.00 80 1012.8
20260903070445 80 111 1.0 6.0 0.00 0.00 0.00 80 1012.8
20260903065944 80 154 1.0 6.0 0.00 0.00 0.00 80 1012.8
20260903065443 80 155 2.0 4.0 0.00 0.00 0.00 79 1012.9
20260903064943 80 142 2.0 8.0 0.00 0.00 0.00 79 1012.8
20260903064442 80 167 2.0 8.0 0.00 0.00 0.00 79 1012.9
20260903063942 80 159 2.0 7.0 0.00 0.00 0.00 79 1012.9
20260903063445 80 94 1.0 4.0 0.00 0.00 0.00 78 1013.0
20260903062939 80 106 1.0 4.0 0.00 0.00 0.00 78 1012.9
20260903062440 80 128 1.0 6.0 0.00 0.00 0.00 78 1013.0
20260903061937 80 124 1.0 6.0 0.00 0.00 0.00 77 1013.0
20260903061435 80 131 2.0 7.0 0.00 0.00 0.00 77 1013.0
20260903061228 80 137 2.0 7.0 0.00 0.00 0.00 77 1013.1
20260903060434 80 163 2.0 6.0 0.00 0.00 0.00 76 1013.2
20260903055931 81 134 2.0 8.0 0.00 0.00 0.00 76 1013.3
20260903055436 81 237 2.0 8.0 0.00 0.00 0.00 76 1013.3
20260903054929 81 158 2.0 6.0 0.00 0.00 0.00 75 1013.3
20260903054430 81 344 2.0 8.0 0.00 0.00 0.00 75 1013.4
20260903053929 81 136 3.0 8.0 0.00 0.00 0.00 74 1013.4
20260903053429 81 209 3.0 8.0 0.00 0.00 0.00 74 1013.4
20260903052928 81 94 3.0 9.0 0.00 0.00 0.00 74 1013.4
20260903052430 82 165 4.0 12.0 0.00 0.00 0.00 73 1013.5
20260903051931 82 110 4.0 12.0 0.00 0.00 0.00 72 1013.4
20260903051429 82 257 3.0 10.0 0.00 0.00 0.00 72 1013.3
20260903050930 82 117 3.0 10.0 0.00 0.00 0.00 71 1013.3
20260903050425 83 17 4.0 10.0 0.00 0.00 0.00 71 1013.4
20260903045925 83 134 3.0 9.0 0.00 0.00 0.00 70 1013.3
20260903045424 83 148 3.0 9.0 0.00 0.00 0.00 70 1013.2
20260903044926 83 128 3.0 9.0 0.00 0.00 0.00 69 1013.2
20260903044426 83 92 3.0 9.0 0.00 0.00 0.00 69 1013.1
20260903043926 83 257 3.0 11.0 0.00 0.00 0.00 68 1013.2
20260903043423 84 151 3.0 11.0 0.00 0.00 0.00 68 1013.1
20260903042923 84 126 3.0 10.0 0.00 0.00 0.00 68 1013.2
20260903042420 84 111 3.0 8.0 0.00 0.00 0.00 67 1013.2
20260903041921 84 147 3.0 12.0 0.00 0.00 0.00 67 1013.2
20260903041418 84 128 3.0 12.0 0.00 0.00 0.00 66 1013.2
20260903040919 85 167 3.0 10.0 0.00 0.00 0.00 66 1013.3
20260903040430 85 98 3.0 11.0 0.00 0.00 0.00 65 1013.3
20260903035918 85 194 4.0 11.0 0.00 0.00 0.00 65 1013.3
20260903035418 85 162 3.0 12.0 0.00 0.00 0.00 64 1013.3
20260903034918 85 192 2.0 12.0 0.00 0.00 0.00 64 1013.4
20260903034715 85 5 2.0 7.0 0.00 0.00 0.00 63 1013.4
20260903033919 85 116 2.0 6.0 0.00 0.00 0.00 63 1013.4
20260903033418 86 134 2.0 8.0 0.00 0.00 0.00 63 1013.5
20260903032923 86 139 3.0 12.0 0.00 0.00 0.00 62 1013.4
20260903032710 86 25 3.0 12.0 0.00 0.00 0.00 62 1013.4
20260903031919 86 101 4.0 12.0 0.00 0.00 0.00 61 1013.4
20260903031419 87 5 5.0 12.0 0.00 0.00 0.00 61 1013.4
20260903030920 87 77 4.0 12.0 0.00 0.00 0.00 61 1013.3
20260903030418 87 147 4.0 12.0 0.00 0.00 0.00 60 1013.2
20260903025918 88 153 4.0 12.0 0.00 0.00 0.00 59 1013.2
20260903025416 88 139 4.0 12.0 0.00 0.00 0.00 59 1013.1
20260903024916 89 171 5.0 11.0 0.00 0.00 0.00 58 1013.0
20260903024416 89 214 4.0 11.0 0.00 0.00 0.00 57 1013.0
20260903023917 89 162 4.0 11.0 0.00 0.00 0.00 56 1012.9
20260903023418 90 94 4.0 11.0 0.00 0.00 0.00 55 1012.9
20260903023208 90 20 3.0 10.0 0.00 0.00 0.00 54 1012.8
20260903022513 90 81 4.0 10.0 0.00 0.00 0.00 53 1012.6
20260903022453 90 348 3.0 9.0 0.00 0.00 0.00 53 1012.7
20260903021415 90 161 4.0 10.0 0.00 0.00 0.00 52 1012.6
20260903020914 91 100 3.0 9.0 0.00 0.00 0.00 52 1012.5
20260903020415 91 105 3.0 9.0 0.00 0.00 0.00 52 1012.4
20260903015915 91 217 3.0 8.0 0.00 0.00 0.00 52 1012.4
20260903015414 91 149 4.0 11.0 0.00 0.00 0.00 52 1012.3
20260903014914 91 159 3.0 11.0 0.00 0.00 0.00 51 1012.3
20260903014415 91 190 3.0 10.0 0.00 0.00 0.00 51 1012.2
20260903013915 92 17 3.0 10.0 0.00 0.00 0.00 51 1012.2
20260903013414 92 209 3.0 9.0 0.00 0.00 0.00 51 1012.0
20260903012914 92 217 3.0 10.0 0.00 0.00 0.00 50 1012.0
20260903012754 92 142 2.0 8.0 0.00 0.00 0.00 51 1011.8
20260903012749 92 108 3.0 10.0 0.00 0.00 0.00 51 1011.8
20260903011411 92 90 2.0 9.0 0.00 0.00 0.00 50 1011.8
20260903010910 93 33 3.0 10.0 0.00 0.00 0.00 50 1011.7
20260903010408 93 178 4.0 10.0 0.00 0.00 0.00 50 1011.6
20260903005908 93 29 3.0 9.0 0.00 0.00 0.00 49 1011.6
20260903005408 94 90 3.0 8.0 0.00 0.00 0.00 49 1011.5
20260903004904 94 170 3.0 10.0 0.00 0.00 0.00 49 1011.5
20260903004406 94 136 3.0 10.0 0.00 0.00 0.00 48 1011.6
20260903003905 94 190 3.0 7.0 0.00 0.00 0.00 47 1011.6
20260903003406 94 124 3.0 10.0 0.00 0.00 0.00 48 1011.5
20260903003202 95 165 3.0 10.0 0.00 0.00 0.00 48 1011.6
20260903002402 95 168 3.0 10.0 0.00 0.00 0.00 48 1011.6
20260903001904 95 182 3.0 8.0 0.00 0.00 0.00 48 1011.5
20260903001402 96 173 3.0 10.0 0.00 0.00 0.00 47 1011.4
20260903000902 96 144 3.0 10.0 0.00 0.00 0.00 46 1011.4
20260903000402 97 202 3.0 10.0 0.00 0.00 0.00 45 1011.3
20260902235903 98 63 3.0 11.0 0.00 0.00 0.00 44 1011.4
20260902235654 98 117 2.0 11.0 0.00 0.00 0.00 43 1011.3
20260902234902 98 124 3.0 9.0 0.00 0.00 0.00 42 1011.3
20260902234403 98 286 3.0 10.0 0.00 0.00 0.00 41 1011.2
20260902233902 98 92 2.0 10.0 0.00 0.00 0.00 42 1011.2
20260902233402 98 63 3.0 6.0 0.00 0.00 0.00 42 1011.1
20260902232902 98 315 3.0 7.0 0.00 0.00 0.00 41 1011.1
20260902232403 99 316 3.0 10.0 0.00 0.00 0.00 41 1011.2
20260902231902 99 173 3.0 10.0 0.00 0.00 0.00 40 1011.2
20260902231356 99 54 3.0 10.0 0.00 0.00 0.00 40 1011.1
20260902230856 99 169 2.0 10.0 0.00 0.00 0.00 40 1011.1
20260902230355 99 74 2.0 7.0 0.00 0.00 0.00 41 1011.3
20260902230205 100 305 2.0 8.0 0.00 0.00 0.00 40 1011.1
20260902225355 100 86 3.0 8.0 0.00 0.00 0.00 40 1011.2
20260902224854 101 138 2.0 6.0 0.00 0.00 0.00 38 1011.1
20260902224354 101 5 2.0 7.0 0.00 0.00 0.00 39 1011.0
20260902223853 101 265 2.0 7.0 0.00 0.00 0.00 38 1011.2
20260902223354 101 145 2.0 7.0 0.00 0.00 0.00 40 1011.1
20260902222854 100 324 3.0 7.0 0.00 0.00 0.00 39 1011.1
20260902222354 100 152 3.0 10.0 0.00 0.00 0.00 39 1011.3
20260902221854 100 150 2.0 10.0 0.00 0.00 0.00 39 1011.3
20260902221358 100 330 2.0 8.0 0.00 0.00 0.00 39 1011.3
20260902220855 100 334 2.0 8.0 0.00 0.00 0.00 40 1011.4
20260902220356 100 136 2.0 6.0 0.00 0.00 0.00 39 1011.3
20260902215855 100 19 3.0 7.0 0.00 0.00 0.00 39 1011.4
20260902215355 100 84 3.0 9.0 0.00 0.00 0.00 39 1011.6
20260902214853 100 121 3.0 9.0 0.00 0.00 0.00 40 1011.6
20260902214353 100 24 3.0 9.0 0.00 0.00 0.00 41 1011.6
20260902213856 100 152 3.0 9.0 0.00 0.00 0.00 42 1011.7
20260902213352 99 292 2.0 9.0 0.00 0.00 0.00 42 1011.7
20260902212852 99 38 2.0 9.0 0.00 0.00 0.00 42 1011.8
20260902212353 100 15 2.0 8.0 0.00 0.00 0.00 39 1011.9
20260902211852 100 156 2.0 8.0 0.00 0.00 0.00 39 1012.0
20260902211352 101 32 2.0 8.0 0.00 0.00 0.00 40 1011.8
20260902210850 100 46 2.0 6.0 0.00 0.00 0.00 42 1012.0
20260902210354 100 319 2.0 6.0 0.00 0.00 0.00 40 1012.1
20260902205851 100 229 2.0 7.0 0.00 0.00 0.00 41 1012.2
20260902205351 100 338 2.0 7.0 0.00 0.00 0.00 41 1012.2
20260902205142 99 355 2.0 9.0 0.00 0.00 0.00 43 1012.3
20260902204348 99 26 3.0 9.0 0.00 0.00 0.00 41 1012.3
20260902203849 98 350 2.0 8.0 0.00 0.00 0.00 43 1012.3
20260902203347 98 304 2.0 6.0 0.00 0.00 0.00 44 1012.4
20260902203142 98 27 3.0 9.0 0.00 0.00 0.00 44 1012.5
20260902202347 98 342 3.0 11.0 0.00 0.00 0.00 43 1012.6
20260902201848 98 314 3.0 11.0 0.00 0.00 0.00 44 1012.8
20260902201348 98 290 2.0 9.0 0.00 0.00 0.00 43 1013.0
20260902200848 98 339 2.0 8.0 0.00 0.00 0.00 42 1013.0
20260902200348 98 92 2.0 7.0 0.00 0.00 0.00 41 1013.1
20260902195846 98 195 2.0 7.0 0.00 0.00 0.00 44 1013.1
20260902195632 98 333 2.0 7.0 0.00 0.00 0.00 43 1013.2
20260902195140 98 5 2.0 7.0 0.00 0.00 0.00 43 1013.4
20260902194345 98 161 2.0 7.0 0.00 0.00 0.00 44 1013.4
20260902194235 96 338 3.0 9.0 0.00 0.00 0.00 46 1013.5
20260902194230 96 205 2.0 7.0 0.00 0.00 0.00 48 1013.5
20260902192843 97 295 3.0 9.0 0.00 0.00 0.00 47 1013.6
20260902192342 97 82 3.0 7.0 0.00 0.00 0.00 46 1013.7
20260902191842 97 346 2.0 8.0 0.00 0.00 0.00 44 1013.9
20260902191342 97 131 1.0 8.0 0.00 0.00 0.00 47 1013.8
20260902190842 96 257 1.0 4.0 0.00 0.00 0.00 47 1014.0
20260902190342 95 15 2.0 5.0 0.00 0.00 0.00 48 1014.1
20260902185842 96 313 2.0 7.0 0.00 0.00 0.00 45 1014.1
20260902185342 96 344 2.0 7.0 0.00 0.00 0.00 46 1014.2
20260902184937 96 29 2.0 6.0 0.00 0.00 0.00 47 1014.4
20260902184916 96 355 2.0 6.0 0.00 0.00 0.00 45 1014.3
20260902183842 95 289 2.0 6.0 0.00 0.00 0.00 49 1014.5
20260902183342 95 141 3.0 7.0 0.00 0.00 0.00 47 1014.5
20260902182842 95 320 2.0 7.0 0.00 0.00 0.00 47 1014.6
20260902182635 95 157 2.0 7.0 0.00 0.00 0.00 50 1014.6
20260902182131 95 275 2.0 7.0 0.00 0.00 0.00 48 1014.7
20260902181344 95 105 2.0 6.0 0.00 0.00 0.00 50 1014.8
20260902180841 95 300 2.0 6.0 0.00 0.00 0.00 51 1014.9
20260902180326 95 5 2.0 5.0 0.00 0.00 0.00 50 1015.0
20260902175827 95 332 2.0 5.0 0.00 0.00 0.00 48 1015.0
20260902175325 95 202 2.0 8.0 0.00 0.00 0.00 49 1015.2
20260902174825 95 104 2.0 8.0 0.00 0.00 0.00 50 1015.2
20260902174325 95 269 2.0 5.0 0.00 0.00 0.00 51 1015.3
20260902173826 95 186 2.0 6.0 0.00 0.00 0.00 52 1015.3
20260902173624 95 32 2.0 6.0 0.00 0.00 0.00 50 1015.4
20260902172826 94 146 1.0 5.0 0.00 0.00 0.00 53 1015.3
20260902172326 93 192 2.0 8.0 0.00 0.00 0.00 53 1015.5
20260902171825 94 153 3.0 8.0 0.00 0.00 0.00 53 1015.7
20260902171625 93 142 2.0 7.0 0.00 0.00 0.00 53 1015.7
20260902170826 93 64 2.0 7.0 0.00 0.00 0.00 55 1015.8
20260902170325 92 182 2.0 7.0 0.00 0.00 0.00 54 1015.9
20260902165826 92 104 1.0 5.0 0.00 0.00 0.00 56 1015.9
20260902165616 93 50 2.0 9.0 0.00 0.00 0.00 55 1016.3
20260902164826 92 144 3.0 9.0 0.00 0.00 0.00 55 1016.2
20260902164326 93 355 2.0 6.0 0.00 0.00 0.00 54 1016.3
20260902164207 93 182 2.0 6.0 0.00 0.00 0.00 57 1016.3
20260902164202 93 43 2.0 6.0 0.00 0.00 0.00 55 1016.3
20260902162824 92 271 2.0 6.0 0.00 0.00 0.00 57 1016.3
20260902162323 92 165 2.0 8.0 0.00 0.00 0.00 56 1016.5
20260902161824 92 125 2.0 8.0 0.00 0.00 0.00 57 1016.6
20260902161324 92 55 2.0 8.0 0.00 0.00 0.00 56 1016.6
20260902160822 92 289 2.0 8.0 0.00 0.00 0.00 57 1016.6
20260902160315 92 166 1.0 6.0 0.00 0.00 0.00 58 1016.5
20260902155816 91 150 1.0 4.0 0.00 0.00 0.00 58 1016.6
20260902155316 91 347 2.0 7.0 0.00 0.00 0.00 58 1016.6
20260902154814 91 123 2.0 7.0 0.00 0.00 0.00 59 1016.7
20260902154316 91 344 2.0 5.0 0.00 0.00 0.00 59 1016.5
20260902154106 90 93 2.0 4.0 0.00 0.00 0.00 59 1016.6
20260902153312 90 170 1.0 4.0 0.00 0.00 0.00 60 1016.5
20260902152811 90 176 1.0 4.0 0.00 0.00 0.00 60 1016.4
20260902152311 90 123 1.0 3.0 0.00 0.00 0.00 60 1016.3
20260902151812 89 194 1.0 4.0 0.00 0.00 0.00 61 1016.4
20260902151312 89 180 1.0 4.0 0.00 0.00 0.00 61 1016.3
20260902150811 89 211 1.0 3.0 0.00 0.00 0.00 62 1016.3
20260902150606 88 58 1.0 3.0 0.00 0.00 0.00 62 1016.3
20260902145805 88 171 1.0 3.0 0.00 0.00 0.00 63 1016.3
20260902145306 87 37 1.0 3.0 0.00 0.00 0.00 64 1016.2
20260902144801 87 276 1.0 3.0 0.00 0.00 0.00 64 1016.3
20260902144259 87 15 1.0 4.0 0.00 0.00 0.00 65 1016.3
20260902143757 87 146 2.0 6.0 0.00 0.00 0.00 66 1016.0
20260902143258 86 271 2.0 6.0 0.00 0.00 0.00 66 1016.3
20260902143052 86 237 1.0 6.0 0.00 0.00 0.00 67 1016.2
20260902142548 86 149 1.0 4.0 0.00 0.00 0.00 68 1016.2
20260902141759 85 26 1.0 3.0 0.00 0.00 0.00 68 1016.2
20260902141300 85 75 1.0 5.0 0.00 0.00 0.00 69 1016.3
20260902140758 85 108 2.0 5.0 0.00 0.00 0.00 69 1016.0
20260902140554 85 144 2.0 5.0 0.00 0.00 0.00 70 1016.0
20260902140058 84 121 1.0 4.0 0.00 0.00 0.00 71 1016.0
20260902135254 84 255 1.0 4.0 0.00 0.00 0.00 72 1016.2
20260902134752 83 146 1.0 5.0 0.00 0.00 0.00 73 1016.2
20260902134546 83 138 2.0 8.0 0.00 0.00 0.00 74 1016.2
20260902133749 82 85 2.0 8.0 0.00 0.00 0.00 75 1016.0
20260902133249 81 144 1.0 7.0 0.00 0.00 0.00 76 1016.0
20260902132748 81 81 1.0 5.0 0.00 0.00 0.00 77 1016.3
20260902132248 80 171 1.0 4.0 0.00 0.00 0.00 77 1016.2
20260902131745 80 48 0.0 3.0 0.00 0.00 0.00 78 1016.0
20260902131247 80 110 0.0 3.0 0.00 0.00 0.00 78 1015.8
20260902130747 80 141 0.0 2.0 0.00 0.00 0.00 78 1015.8
20260902130245 79 167 0.0 1.0 0.00 0.00 0.00 79 1015.9
20260902125750 79 95 0.0 1.0 0.00 0.00 0.00 79 1015.8
20260902125245 79 122 0.0 1.0 0.00 0.00 0.00 79 1015.7
20260902124745 79 128 0.0 3.0 0.00 0.00 0.00 79 1015.7
20260902124245 78 108 0.0 3.0 0.00 0.00 0.00 79 1015.7
20260902123745 78 132 0.0 1.0 0.00 0.00 0.00 79 1015.7
20260902123245 78 117 0.0 1.0 0.00 0.00 0.00 79 1015.6
20260902123040 78 117 0.0 0.0 0.00 0.00 0.00 79 1015.6
20260902122244 78 118 0.0 1.0 0.00 0.00 0.00 79 1015.5
20260902121743 78 119 0.0 3.0 0.00 0.00 0.00 80 1015.4
20260902121244 78 119 0.0 3.0 0.00 0.00 0.00 80 1015.4
20260902120744 78 146 0.0 3.0 0.00 0.00 0.00 81 1015.3
20260902120242 78 126 0.0 1.0 0.00 0.00 0.00 81 1015.4
20260902115739 78 180 0.0 0.0 0.00 0.00 0.00 81 1015.4
20260902115238 78 180 0.0 0.0 0.00 0.00 0.00 80 1015.4
20260902114737 78 180 0.0 0.0 0.00 0.00 0.00 80 1015.4
20260902114231 78 180 0.0 0.0 0.00 0.00 0.00 80 1015.2
20260902113755 78 180 0.0 0.0 0.00 0.00 0.00 80 1015.2
20260902113519 78 180 0.0 0.0 0.00 0.00 0.00 80 1015.4